User: anonymous   Login
Location: Unspecified
(0.0000°N, 0.0000°E)
Time: 09:39:32
(UTC+00:00)
Language:

Ayame - Orbit

View from above orbital plane
View from above orbital plane
View from above satellite
View from above satellite

Ground track
Ground track

The orbit data is extracted from the following two-line orbital elements,

1 11261U 79009A   17294.73868880 -.00000102 +00000-0 +00000-0 0  9991
2 11261 008.0170 119.1710 3690537 137.8551 264.5505 01.68580115122874
Epoch (UTC): 21 October 2017 17:43:42
Eccentricity: 0.3690537
inclination: 8.0170°
perigee height: 12437 km
apogee height: 34449 km
right ascension of ascending node: 119.1710°
argument of perigee: 137.8551°
revolutions per day: 1.68580115
mean anomaly at epoch: 264.5505°
orbit number at epoch: 12287

The dashed part of the orbit path shows where the satellite is in the earth's shadow,  

DLR